EW6388 Weather Reports


time (UTC)temp
C
wind
direction
speed
KPH
gust
KPH
rain 1hr
cm
rain 24hr
cm
rain mn
cm
humidity
%
barometer
mb
20260507212506 5 120 0.0 0.0 0.00 0.08 0.08 89 1015.0
20260507212004 5 120 0.0 0.0 0.00 0.08 0.08 88 1014.9
20260507211512 5 120 0.0 0.0 0.00 0.08 0.08 87 1014.9
20260507211006 6 120 0.0 3.2 0.00 0.08 0.08 86 1014.9
20260507210504 6 120 0.0 3.2 0.00 0.08 0.08 85 1015.0
20260507210016 6 120 1.6 3.2 0.00 0.08 0.08 86 1014.9
20260507205504 6 258 1.6 3.2 0.00 0.08 0.08 87 1014.9
20260507205009 6 255 3.2 3.2 0.00 0.08 0.08 87 1014.8
20260507204525 6 215 1.6 4.8 0.00 0.08 0.08 87 1014.7
20260507204009 6 215 1.6 4.8 0.00 0.08 0.08 86 1014.6
20260507203509 6 240 3.2 4.8 0.00 0.08 0.08 86 1014.5
20260507203024 7 223 3.2 3.2 0.00 0.08 0.08 86 1014.4
20260507202507 7 215 0.0 0.0 0.00 0.08 0.08 86 1014.4
20260507202006 7 227 0.0 0.0 0.00 0.08 0.08 85 1014.4
20260507201522 7 211 0.0 3.2 0.00 0.08 0.08 84 1014.3
20260507201004 7 188 0.0 3.2 0.00 0.08 0.08 83 1014.3
20260507200503 7 150 0.0 1.6 0.00 0.08 0.08 83 1014.4
20260507200015 8 251 0.0 0.0 0.00 0.08 0.08 82 1014.3
20260507195505 8 251 0.0 0.0 0.00 0.08 0.08 81 1014.3
20260507195007 8 251 0.0 0.0 0.00 0.08 0.08 80 1014.3
20260507194513 8 251 0.0 3.2 0.00 0.08 0.08 80 1014.3
20260507194005 9 251 0.0 3.2 0.00 0.08 0.08 78 1014.2
20260507193509 9 251 0.0 3.2 0.00 0.08 0.08 78 1014.2
20260507193023 10 240 0.0 4.8 0.00 0.08 0.08 78 1014.1
20260507192509 10 240 1.6 4.8 0.00 0.08 0.08 78 1014.2
20260507192010 10 215 0.0 3.2 0.00 0.08 0.08 79 1014.2
20260507191528 10 227 1.6 3.2 0.00 0.08 0.08 80 1014.2
20260507191003 10 233 0.0 3.2 0.00 0.08 0.08 81 1014.2
20260507190509 10 229 0.0 3.2 0.00 0.08 0.08 81 1014.1
20260507190024 10 229 0.0 3.2 0.00 0.08 0.08 82 1014.1
20260507185503 10 233 0.0 3.2 0.00 0.08 0.08 82 1014.0
20260507185008 10 223 0.0 0.0 0.00 0.08 0.08 84 1014.0
20260507184518 10 234 0.0 0.0 0.00 0.08 0.08 84 1014.0
20260507184006 10 234 0.0 0.0 0.00 0.08 0.08 82 1014.0
20260507183502 10 227 0.0 0.0 0.00 0.08 0.08 81 1014.0
20260507183018 10 228 0.0 3.2 0.00 0.08 0.08 80 1013.9
20260507182509 10 228 0.0 3.2 0.00 0.08 0.08 80 1013.9
20260507182011 10 228 0.0 4.8 0.00 0.08 0.08 80 1013.9
20260507181517 10 213 0.0 11.3 0.00 0.08 0.08 79 1014.0
20260507181012 11 240 3.2 11.3 0.00 0.08 0.08 78 1013.9
20260507180509 11 217 1.6 6.4 0.00 0.08 0.08 79 1013.9
20260507180026 11 208 3.2 6.4 0.00 0.08 0.08 80 1013.8
20260507175511 11 198 1.6 6.4 0.00 0.08 0.08 83 1013.8
20260507175009 11 181 0.0 4.8 0.00 0.08 0.08 85 1013.7
20260507174543 11 155 1.6 4.8 0.00 0.08 0.08 86 1013.7
20260507174007 10 157 1.6 4.8 0.00 0.08 0.08 86 1013.7
20260507173511 10 192 3.2 4.8 0.00 0.08 0.08 86 1013.7
20260507173023 10 219 0.0 0.0 0.00 0.08 0.08 86 1013.8
20260507172506 10 200 0.0 0.0 0.00 0.08 0.08 86 1013.6
20260507172010 10 180 0.0 0.0 0.00 0.08 0.08 86 1013.7
20260507171530 10 175 0.0 0.0 0.03 0.08 0.08 86 1013.8
20260507171009 10 153 0.0 0.0 0.08 0.08 0.08 86 1013.8
20260507170506 10 128 0.0 0.0 0.08 0.08 0.08 85 1013.8
20260507170025 10 124 0.0 0.0 0.08 0.08 0.08 84 1013.8
20260507165516 10 239 0.0 0.0 0.08 0.08 0.08 85 1013.8
20260507165012 10 239 0.0 3.2 0.08 0.08 0.08 85 1013.9
20260507164524 10 246 0.0 3.2 0.08 0.08 0.08 85 1014.0
20260507164009 10 232 0.0 3.2 0.08 0.08 0.08 86 1014.0
20260507163511 10 256 0.0 3.2 0.08 0.08 0.08 86 1014.0
20260507163020 10 249 0.0 6.4 0.08 0.08 0.08 83 1014.0
20260507162506 10 222 0.0 9.7 0.08 0.08 0.08 82 1013.9
20260507162008 10 214 3.2 14.5 0.08 0.08 0.08 81 1014.0
20260507161522 10 225 6.4 12.9 0.05 0.05 0.05 79 1014.0
20260507161010 11 213 4.8 16.1 0.00 0.00 0.00 75 1013.9
20260507160507 11 233 3.2 16.1 0.00 0.00 0.00 72 1013.7
20260507160024 11 196 8.0 19.3 0.00 0.00 0.00 71 1013.6
20260507155506 11 218 8.0 17.7 0.00 0.00 0.00 70 1013.6
20260507155010 11 195 6.4 22.5 0.00 0.00 0.00 72 1013.6
20260507154528 11 176 14.5 22.5 0.00 0.00 0.00 71 1013.6
20260507154010 11 166 14.5 22.5 0.00 0.00 0.00 70 1013.6
20260507153505 11 196 8.0 17.7 0.00 0.00 0.00 70 1013.6
20260507153029 12 178 8.0 20.9 0.00 0.00 0.00 70 1013.6
20260507152508 12 178 14.5 20.9 0.00 0.00 0.00 68 1013.6
20260507152008 12 159 8.0 20.9 0.00 0.00 0.00 68 1013.7
20260507151518 12 162 12.9 25.7 0.00 0.00 0.00 70 1013.7
20260507151007 12 176 9.7 27.4 0.00 0.00 0.00 69 1013.6
20260507150506 12 198 16.1 27.4 0.00 0.00 0.00 68 1013.6
20260507150023 12 173 14.5 27.4 0.00 0.00 0.00 69 1013.6
20260507145507 12 176 14.5 24.1 0.00 0.00 0.00 69 1013.7
20260507145016 12 169 14.5 17.7 0.00 0.00 0.00 68 1013.7
20260507144521 12 159 11.3 19.3 0.00 0.00 0.00 69 1013.7
20260507144010 12 181 11.3 19.3 0.00 0.00 0.00 69 1013.8
20260507143508 12 194 12.9 19.3 0.00 0.00 0.00 70 1013.9
20260507143027 11 183 11.3 19.3 0.00 0.00 0.00 69 1013.9
20260507142508 11 170 11.3 19.3 0.00 0.00 0.00 69 1014.0
20260507142009 11 192 9.7 19.3 0.00 0.00 0.00 67 1014.0
20260507141530 11 160 9.7 17.7 0.00 0.00 0.00 67 1013.9
20260507141013 11 135 8.0 14.5 0.00 0.00 0.00 68 1013.9
20260507140509 11 161 6.4 14.5 0.00 0.00 0.00 68 1014.0
20260507140035 11 183 9.7 17.7 0.00 0.00 0.00 67 1014.0
20260507135508 12 186 11.3 19.3 0.00 0.00 0.00 65 1014.0
20260507135011 12 174 11.3 19.3 0.00 0.00 0.00 66 1014.0
20260507134524 12 188 11.3 24.1 0.00 0.00 0.00 66 1014.0
20260507134009 12 180 11.3 22.5 0.00 0.00 0.00 65 1014.0
20260507133509 12 192 9.7 20.9 0.00 0.00 0.00 65 1014.1
20260507133024 12 180 16.1 20.9 0.00 0.00 0.00 63 1014.1
20260507132509 13 171 14.5 20.9 0.00 0.00 0.00 62 1014.2
20260507132013 13 215 12.9 30.6 0.00 0.00 0.00 63 1014.1
20260507131541 13 178 14.5 30.6 0.00 0.00 0.00 62 1014.1
20260507131010 13 169 14.5 29.0 0.00 0.00 0.00 62 1014.1
20260507130508 13 173 9.7 25.7 0.00 0.00 0.00 59 1014.1
20260507130030 13 174 11.3 27.4 0.00 0.00 0.00 60 1013.9
20260507125509 13 213 12.9 29.0 0.00 0.00 0.00 63 1014.0
20260507125005 13 209 20.9 29.0 0.00 0.00 0.00 60 1013.9
20260507124524 13 164 19.3 30.6 0.00 0.00 0.00 63 1014.0
20260507124010 13 177 17.7 30.6 0.00 0.00 0.00 66 1014.0
20260507123510 12 180 16.1 27.4 0.00 0.00 0.00 65 1014.1
20260507123033 12 190 14.5 29.0 0.00 0.00 0.00 67 1014.1
20260507122517 12 183 14.5 29.0 0.00 0.00 0.00 68 1014.1
20260507122011 12 163 19.3 29.0 0.00 0.00 0.00 68 1014.1
20260507121526 12 198 12.9 32.2 0.00 0.00 0.00 68 1014.1
20260507121011 12 165 16.1 32.2 0.00 0.00 0.00 67 1014.2
20260507120510 12 190 12.9 19.3 0.00 0.00 0.00 67 1014.3
20260507120031 12 178 4.8 16.1 0.00 0.00 0.00 65 1014.4
20260507115509 12 169 4.8 19.3 0.00 0.00 0.00 66 1014.4
20260507115012 12 192 8.0 20.9 0.00 0.00 0.00 65 1014.5
20260507114525 12 185 8.0 29.0 0.00 0.00 0.00 67 1014.6
20260507114015 12 181 12.9 29.0 0.00 0.00 0.00 67 1014.6
20260507113508 11 196 12.9 22.5 0.00 0.00 0.00 67 1014.6
20260507113055 11 184 9.7 22.5 0.00 0.00 0.00 67 1014.6
20260507112516 11 198 12.9 22.5 0.00 0.00 0.00 67 1014.6
20260507112013 11 192 9.7 19.3 0.00 0.00 0.00 69 1014.5
20260507111527 11 219 8.0 19.3 0.00 0.00 0.00 68 1014.6
20260507111010 11 180 6.4 17.7 0.00 0.00 0.00 68 1014.6
20260507110510 11 170 9.7 17.7 0.00 0.00 0.00 67 1014.6
20260507110015 11 209 11.3 17.7 0.00 0.00 0.00 69 1014.5
20260507105504 11 229 6.4 14.5 0.00 0.00 0.00 68 1014.6
20260507105004 11 190 4.8 12.9 0.00 0.00 0.00 70 1014.6
20260507104519 11 215 4.8 12.9 0.00 0.00 0.00 70 1014.6
20260507104003 10 179 6.4 22.5 0.00 0.00 0.00 72 1014.7
20260507103503 10 184 9.7 22.5 0.00 0.00 0.00 71 1014.7
20260507103004 10 180 11.3 27.4 0.00 0.00 0.00 71 1014.8
20260507102503 10 192 16.1 27.4 0.00 0.00 0.00 70 1014.8
20260507102006 10 192 14.5 19.3 0.00 0.00 0.00 73 1014.7
20260507101507 10 181 4.8 20.9 0.00 0.00 0.00 73 1014.8
20260507101007 10 197 12.9 24.1 0.00 0.00 0.00 72 1014.7
20260507100503 10 175 12.9 24.1 0.00 0.00 0.00 71 1014.7
20260507100009 10 198 11.3 20.9 0.00 0.00 0.00 72 1014.7
20260507095506 10 182 11.3 20.9 0.00 0.00 0.00 72 1014.8
20260507095007 10 162 6.4 11.3 0.00 0.00 0.00 74 1014.8
20260507094504 10 207 4.8 16.1 0.00 0.00 0.00 75 1014.8
20260507094005 9 182 9.7 19.3 0.00 0.00 0.00 77 1014.8
20260507093504 9 188 11.3 20.9 0.00 0.00 0.00 76 1014.7
20260507093027 8 198 8.0 20.9 0.00 0.00 0.00 76 1014.7
20260507092509 8 185 11.3 16.1 0.00 0.00 0.00 77 1014.7
20260507092002 8 192 6.4 17.7 0.00 0.00 0.00 78 1014.7
20260507091505 8 195 9.7 16.1 0.00 0.00 0.00 79 1014.7
20260507091004 8 191 6.4 16.1 0.00 0.00 0.00 78 1014.7
20260507090507 8 190 8.0 16.1 0.00 0.00 0.00 79 1014.7
20260507090009 8 286 4.8 16.1 0.00 0.00 0.00 79 1014.7
20260507085503 8 239 6.4 12.9 0.00 0.00 0.00 79 1014.7
20260507085003 8 228 4.8 11.3 0.00 0.00 0.00 79 1014.6
20260507084534 8 265 3.2 11.3 0.00 0.00 0.00 79 1014.6
20260507084004 7 234 3.2 9.7 0.00 0.00 0.00 79 1014.6
20260507083503 7 209 3.2 12.9 0.00 0.00 0.00 79 1014.5
20260507083019 7 229 3.2 16.1 0.00 0.00 0.00 79 1014.5
20260507082503 7 235 3.2 16.1 0.00 0.00 0.00 79 1014.5
20260507082007 7 259 1.6 12.9 0.00 0.00 0.00 80 1014.5
20260507081508 7 230 1.6 4.8 0.00 0.00 0.00 79 1014.5
20260507081007 7 265 1.6 4.8 0.00 0.00 0.00 80 1014.6
20260507080505 7 232 1.6 8.0 0.00 0.00 0.00 79 1014.6
20260507080006 7 224 3.2 9.7 0.00 0.00 0.00 80 1014.7
20260507075503 7 267 3.2 11.3 0.00 0.00 0.00 80 1014.7
20260507075003 7 234 4.8 11.3 0.00 0.00 0.00 80 1014.7
20260507074510 7 240 4.8 11.3 0.00 0.00 0.00 80 1014.7
20260507074004 7 271 1.6 6.4 0.00 0.00 0.00 80 1014.6
20260507073503 7 201 1.6 12.9 0.00 0.00 0.00 80 1014.6
20260507073020 7 215 6.4 12.9 0.00 0.00 0.00 80 1014.6
20260507072504 7 230 3.2 6.4 0.00 0.00 0.00 80 1014.6
20260507072003 7 238 1.6 6.4 0.00 0.00 0.00 80 1014.5
20260507071519 7 181 3.2 8.0 0.00 0.00 0.00 80 1014.6
20260507071009 7 169 3.2 8.0 0.00 0.00 0.00 80 1014.4
20260507070504 7 140 1.6 4.8 0.00 0.00 0.00 81 1014.4
20260507070019 6 219 1.6 4.8 0.00 0.00 0.00 81 1014.4
20260507065502 6 194 1.6 8.0 0.00 0.00 0.00 82 1014.4
20260507065003 6 234 1.6 9.7 0.00 0.00 0.00 81 1014.3
20260507064512 6 200 3.2 9.7 0.00 0.00 0.00 81 1014.4
20260507064004 6 207 4.8 11.3 0.00 0.00 0.00 81 1014.4
20260507063506 6 178 4.8 12.9 0.00 0.00 0.00 81 1014.4
20260507063008 6 194 6.4 12.9 0.00 0.00 0.00 81 1014.4
20260507062504 6 173 4.8 12.9 0.00 0.00 0.00 81 1014.4
20260507062006 6 213 6.4 12.9 0.00 0.00 0.00 81 1014.3
20260507061516 6 197 4.8 12.9 0.00 0.00 0.00 81 1014.3
20260507061010 6 191 3.2 16.1 0.00 0.00 0.00 81 1014.3
20260507060506 6 215 6.4 16.1 0.00 0.00 0.00 82 1014.4
20260507060032 6 241 6.4 16.1 0.00 0.00 0.00 82 1014.2
20260507055503 6 193 8.0 16.1 0.00 0.00 0.00 81 1014.3
20260507055005 6 209 6.4 16.1 0.00 0.00 0.00 81 1014.1
20260507054532 6 223 4.8 12.9 0.00 0.00 0.00 82 1014.1
20260507054002 6 213 4.8 14.5 0.00 0.00 0.00 82 1014.0
20260507053503 6 207 4.8 14.5 0.00 0.00 0.00 82 1014.0
20260507053008 6 232 6.4 11.3 0.00 0.00 0.00 81 1014.1
20260507052504 6 192 1.6 11.3 0.00 0.00 0.00 82 1014.1
20260507052004 6 231 3.2 11.3 0.00 0.00 0.00 82 1014.1
20260507051516 6 196 1.6 11.3 0.00 0.00 0.00 82 1014.0
20260507051011 6 186 3.2 11.3 0.00 0.00 0.00 82 1014.0
20260507050507 6 239 4.8 16.1 0.00 0.00 0.00 82 1014.0
20260507050035 6 217 6.4 16.1 0.00 0.00 0.00 82 1014.0
20260507045508 6 230 1.6 12.9 0.00 0.00 0.00 82 1013.9
20260507045008 6 207 3.2 16.1 0.00 0.00 0.00 82 1014.0
20260507044516 6 173 8.0 16.1 0.00 0.00 0.00 82 1013.9
20260507044005 6 223 3.2 16.1 0.00 0.00 0.00 82 1014.0
20260507043508 6 203 4.8 17.7 0.00 0.00 0.00 82 1014.0
20260507043024 6 167 4.8 17.7 0.00 0.00 0.00 83 1013.9
20260507042503 6 239 3.2 9.7 0.00 0.00 0.00 83 1014.0
20260507042004 6 179 3.2 8.0 0.00 0.00 0.00 83 1014.0
20260507041514 6 198 3.2 16.1 0.00 0.00 0.00 83 1014.0
20260507041006 6 209 6.4 16.1 0.00 0.00 0.00 84 1014.0
20260507040504 6 235 3.2 12.9 0.00 0.00 0.00 84 1014.1
20260507040022 6 173 4.8 11.3 0.00 0.00 0.00 84 1014.1
20260507035507 6 280 0.0 1.6 0.00 0.00 0.00 85 1014.1
20260507035003 6 275 0.0 9.7 0.00 0.00 0.00 85 1014.1
20260507034526 6 171 0.0 9.7 0.00 0.00 0.00 84 1014.1
20260507034005 6 196 0.0 9.7 0.00 0.00 0.00 85 1014.1
20260507033501 6 11 0.0 3.2 0.00 0.00 0.00 85 1014.0
20260507033007 5 11 0.0 3.2 0.00 0.00 0.00 86 1014.0
20260507032504 5 342 0.0 3.2 0.00 0.00 0.00 86 1014.1
20260507032004 5 336 0.0 3.2 0.00 0.00 0.00 86 1014.0
20260507031510 6 346 0.0 0.0 0.00 0.00 0.00 86 1014.1
20260507031003 6 292 0.0 4.8 0.00 0.00 0.00 86 1014.1
20260507030503 6 267 0.0 4.8 0.00 0.00 0.00 86 1014.1
20260507030007 6 350 1.6 3.2 0.00 0.00 0.00 85 1014.1
20260507025505 6 47 0.0 4.8 0.00 0.00 0.00 85 1014.1
20260507025013 6 150 1.6 6.4 0.00 0.00 0.00 85 1014.0
20260507024510 6 171 3.2 9.7 0.00 0.00 0.00 85 1014.1
20260507024004 6 173 4.8 9.7 0.00 0.00 0.00 85 1014.1
20260507023506 6 188 3.2 17.7 0.00 0.00 0.00 85 1014.1
20260507023005 6 161 8.0 17.7 0.00 0.00 0.00 85 1014.2
20260507022503 6 198 6.4 14.5 0.00 0.00 0.00 85 1014.1
20260507022002 6 148 4.8 14.5 0.00 0.00 0.00 85 1014.1
20260507021517 6 149 8.0 24.1 0.00 0.00 0.00 85 1014.0
20260507021004 6 184 9.7 24.1 0.00 0.00 0.00 85 1014.0
20260507020503 6 159 12.9 22.5 0.00 0.00 0.00 85 1014.0
20260507020019 6 163 14.5 22.5 0.00 0.00 0.00 85 1014.0
20260507015506 6 146 11.3 20.9 0.00 0.00 0.00 85 1014.0
20260507015001 6 191 8.0 20.9 0.00 0.00 0.00 84 1014.1
20260507014520 6 205 11.3 24.1 0.00 0.00 0.00 84 1014.1
20260507014013 6 173 12.9 24.1 0.00 0.00 0.00 84 1014.1
20260507013502 6 139 11.3 25.7 0.00 0.00 0.00 84 1014.1
20260507013014 6 155 16.1 25.7 0.00 0.00 0.00 84 1014.1
20260507012506 6 163 14.5 22.5 0.00 0.00 0.00 84 1014.1
20260507012007 6 169 11.3 24.1 0.00 0.00 0.00 84 1014.1
20260507011516 6 186 12.9 24.1 0.00 0.00 0.00 84 1014.2
20260507011001 6 208 6.4 24.1 0.00 0.00 0.00 84 1014.2
20260507010510 6 188 8.0 17.7 0.00 0.00 0.00 85 1014.2
20260507010013 6 180 8.0 19.3 0.00 0.00 0.00 84 1014.2
20260507005506 6 182 4.8 19.3 0.00 0.00 0.00 85 1014.3
20260507005007 6 142 8.0 11.3 0.00 0.00 0.00 85 1014.3
20260507004516 6 131 6.4 11.3 0.00 0.00 0.00 85 1014.3
20260507004002 6 13 0.0 9.7 0.00 0.00 0.00 85 1014.4
20260507003506 6 173 0.0 12.9 0.00 0.00 0.00 85 1014.4
20260507003020 6 218 6.4 12.9 0.00 0.00 0.00 85 1014.4
20260507002502 6 167 4.8 11.3 0.00 0.00 0.00 84 1014.4
20260507002008 6 125 6.4 14.5 0.00 0.00 0.00 84 1014.5
20260507001519 6 205 8.0 14.5 0.00 0.00 0.00 84 1014.5
20260507001010 6 154 4.8 12.9 0.00 0.00 0.00 84 1014.6
20260507000503 6 167 4.8 14.5 0.00 0.00 0.00 83 1014.7
20260507000015 6 170 6.4 16.1 0.00 0.00 0.00 83 1014.6
20260506235501 6 187 4.8 16.1 0.00 0.00 0.00 83 1014.6
20260506235002 6 188 6.4 16.1 0.00 0.00 0.00 83 1014.6
20260506234508 6 192 8.0 17.7 0.00 0.00 0.00 82 1014.5
20260506234006 6 196 9.7 17.7 0.00 0.00 0.00 82 1014.5
20260506233506 6 179 9.7 17.7 0.00 0.00 0.00 82 1014.5
20260506233008 6 99 11.3 17.7 0.00 0.00 0.00 81 1014.5
20260506232504 6 163 8.0 17.7 0.00 0.00 0.00 81 1014.6
20260506232008 6 170 9.7 16.1 0.00 0.00 0.00 81 1014.6
20260506231524 6 195 8.0 16.1 0.00 0.00 0.00 80 1014.6
20260506231004 6 196 6.4 14.5 0.00 0.00 0.00 80 1014.5
20260506230507 6 157 8.0 19.3 0.00 0.00 0.00 80 1014.6
20260506230026 6 123 9.7 19.3 0.00 0.00 0.00 79 1014.7
20260506225504 6 174 4.8 16.1 0.00 0.00 0.00 78 1014.6
20260506225005 7 102 8.0 16.1 0.00 0.00 0.00 78 1014.6
20260506224526 7 186 8.0 16.1 0.00 0.00 0.00 78 1014.6
20260506224004 7 205 6.4 14.5 0.00 0.00 0.00 79 1014.6
20260506223506 7 161 8.0 19.3 0.00 0.00 0.00 79 1014.5
20260506223016 7 161 9.7 19.3 0.00 0.00 0.00 79 1014.5
20260506222505 7 192 6.4 12.9 0.00 0.00 0.00 79 1014.5
20260506222008 7 227 4.8 12.9 0.00 0.00 0.00 79 1014.5
20260506221518 7 138 6.4 12.9 0.00 0.00 0.00 78 1014.6
20260506221005 7 139 4.8 11.3 0.00 0.00 0.00 78 1014.6
20260506220507 7 128 4.8 17.7 0.00 0.00 0.00 78 1014.6
20260506220025 7 190 8.0 16.1 0.00 0.00 0.00 78 1014.6
20260506215508 7 172 6.4 17.7 0.00 0.00 0.00 78 1014.6
20260506215012 7 198 8.0 17.7 0.00 0.00 0.00 78 1014.6
20260506214511 7 194 1.6 11.3 0.00 0.00 0.00 78 1014.6
20260506214006 7 148 4.8 11.3 0.00 0.00 0.00 78 1014.5
20260506213511 7 167 3.2 9.7 0.00 0.00 0.00 77 1014.5
20260506213010 7 173 3.2 12.9 0.00 0.00 0.00 77 1014.5